Regional Weather Roundup
Issued by NWS

Home | Current Version | Previous Version | Graphics & Text | Print | Product List | Glossary On
Versions: 1 2 3 4 5 6 7 8 9 10 11 12 13 14 15 16 17 18 19 20 21 22 23 24 25 26 27 28 29 30 31 32 33 34 35 36 37 38 39 40 41 42 43 44 45 46 47 48 49 50
000
ASUS45 KCYS 012010
RWRWY

WYOMING REGIONAL WEATHER ROUNDUP
NATIONAL WEATHER SERVICE CHEYENNE WY
100 PM MST SUN MAR 01 2015

NOTE:  "FAIR" INDICATES FEW OR NO CLOUDS BELOW 12,000 FEET
WITH NO SIGNIFICANT WEATHER AND/OR OBSTRUCTIONS TO VISIBILITY.

WYZ001-012100-
YELLOWSTONE NATIONAL PARK

CITY           SKY/WX    TMP DP  RH WIND       PRES   REMARKS
LK YELLOWSTONE   N/A     11  -5  48 E3        30.09F
W YELLOWSTONE  NOT AVBL

$$
WYZ002>013-054>058-071-098>099-012100-
NORTHERN WYOMING

CITY           SKY/WX    TMP DP  RH WIND       PRES   REMARKS
JACKSON        SUNNY     18   7  62 CALM      30.13F
CODY           FAIR      25  10  54 SE14      30.18F WCI  13
GREYBULL       FAIR      30   2  30 VRB3      30.26F
WORLAND        FAIR      27   8  44 VRB6      30.26F WCI  20
SHERIDAN       FAIR      24   7  48 W7        30.26F WCI  16
BUFFALO        FAIR      20   7  57 CALM      30.22F
GILLETTE       FAIR      24   9  52 NW13      30.24F WCI  12
HULETT         MOCLDY    21   9  58 W12G17    30.26F WCI   9
NEWCASTLE      FAIR      27   9  46 NW13G22   30.27S WCI  16

$$
WYZ014>020-022>026-101>103-012100-
CENTRAL WYOMING

CITY           SKY/WX    TMP DP  RH WIND       PRES   REMARKS
BIG PINEY      FAIR      25  11  55 CALM      30.11F
PINEDALE       FAIR      21  12  68 N6        30.11F WCI  14
DUBOIS         FAIR      21   9  58 CALM      30.08F
LANDER         CLOUDY    22  11  62 S5        30.17F WCI  16
RIVERTON       CLOUDY    22  10  60 E6        30.19F WCI  14
CASPER         FAIR      28   8  43 SW9       30.18F WCI  19
DOUGLAS        FAIR      27  10  49 NW9       30.22F WCI  18

$$
WYZ021-027>030-104>119-012100-
SOUTHERN WYOMING

CITY           SKY/WX    TMP DP  RH WIND       PRES   REMARKS
EVANSTON       FAIR      24  18  77 E12       30.07F WCI  13
KEMMERER       FAIR      30  14  51 E9        30.08F WCI  22
FORT BRIDGER   CLOUDY    25  19  79 E6        30.12F WCI  18
ROCK SPRINGS   FAIR      27  12  53 E6        30.11F WCI  20
DIXON          MOCLDY    31  21  66 W8        30.14F WCI  23
RAWLINS        FAIR      27  12  53 CALM      30.10F
SARATOGA       CLOUDY    25  18  74 MISG      30.11F
LARAMIE        PTSUNNY   18  11  74 VRB3      30.10F
CHEYENNE       FAIR      25  12  58 VRB6      30.15F WCI  18
TORRINGTON     FAIR      31   9  39 N9G22     30.24F WCI  23
PINE BLUFFS    CLOUDY    27  14  59 NE5       30.22F WCI  21

$$


USA.gov is the U.S. government's official web portal to all federal, state and local government web resources and services.